Location: Unspecified
(0.0000°N, 0.0000°E)
Time: 13:13:58
(UTC+00:00)

Explorer 11/Cluster Stage 4 - Pass Details

Date: 21 September 2019
Orbit: 467 x 1259 km, 28.8° (Epoch: 13 October)

Event Time Altitude Azimuth Distance (km) Brightness Sun altitude
Rises 19:05:03 0° 260° (W) 4,170 11.9 -18.0°
Reaches altitude 10° 19:08:27 10° 269° (W) 3,149 10.9 -18.8°
Maximum altitude 19:15:16 32° 329° (NNW) 1,801 8.7 -20.5°
Enters shadow 19:20:56 11° 28° (NNE) 2,646 9.0 -22.0°
